NOAA 16 DEB, 41500

Orbit data source: Space-Track

NOAA 16 DEB, 41500 is space debris in SSO originally from a launch on Thu, 21 Sep 2000 UTC launched from the Air Force Western Test Range (AFWTR). Debris objects in space refer to the collection of defunct objects orbiting the Earth. Examples of debris include non-operational satellites, rocket bodies, and fragments generated from explosions, collisions, or faulty payload assembly.

Loading next visibility...
Identifier
41500, 2000-055LY
Orbit
SSO
Country
Flag of USUS
Related business
Manufacturer
Unknown
Mission
Spacecraft
Bus & Motor
Unknown
Mass
Unknown
Launch date (UTC)
2000-09-21 (25 years ago)
Launch vehicle
Unknown
Launch site
Air Force Western Test Range (AFWTR)
Object type
Payload
Rocket body
Debris
Shape & HBR
Unknown shape, 0.1 m
Radar Cross Section
Small (<0.1 m²)

Expand to show TLE details & history
Last TLE update: 2 days ago

TLE from 2 days ago
0 NOAA 16 DEB
1 41500U 00055LY  25295.06177225  .00010755  00000-0  28235-2 0  9993
2 41500  99.0151 150.0012 0029350 135.0870 225.2703 14.49106569501089
Epoch: 2025-10-22T01:28Z
TLE epoch observation values (Epoch: 2025-10-22T01:28:57.122Z)
Latitude
-0.00005°
Longitude
97.02242°
Altitude
746.225 km
Speed
7.474 km/s
True Right ascension
10h 00m 00s
True Declination
0° 00' 00"
Sunlit
Object was in daylight at epoch
Visualization orbit readout
Latitude
Unknown
Longitude
Unknown
Altitude
Unknown
Speed
Unknown
Apparent Right ascension
Unknown
Apparent Declination
Unknown
Sunlit
N/A
Visualization observer readout
Local Sidereal Time
00:23:05
Azimuth
Unknown
Elevation
Unknown
Doppler factor
Unknown
Orbital elements
Apogee altitude
746.553 km
Perigee altitude
704.853 km
Semi-major axis
7,103.84 km
Eccentricity
0.00294
Inclination
99.0151°
RAAN
150.0012°
Arg. of periapsis
135.087°
True anomaly
225.03198°
Mean anomaly
225.2703°
Eccentric anomaly
225.15108°
Mean motion
3.62496 °/min
Orbital period
99.31 mins
BSTAR
0.0028235
Loading maneuver chart data...
Computing Atmospheric mass density...
Loading historical data...
Loading historical data...
Loading historical data...
Loading historical data...
Loading historical data...
Loading historical data...
Loading historical data...

Documentation

Showing up to 5 results
|